KC0CAU Weather Reports


time (UTC)temp
C
wind
direction
speed
KPH
gust
KPH
rain 1hr
cm
rain 24hr
cm
rain mn
cm
humidity
%
barometer
mb
20260504040022 18 309 11.3 27.4 0.00 0.00 0.00 37 998.3
20260504034509 18 261 11.3 22.5 0.00 0.00 0.00 39 998.4
20260504033006 18 278 8.0 19.3 0.00 0.00 0.00 39 998.6
20260504031505 18 257 8.0 19.3 0.00 0.00 0.00 39 998.8
20260504030003 18 253 9.7 20.9 0.00 0.00 0.00 38 999.1
20260504024501 19 250 9.7 20.9 0.00 0.00 0.00 37 999.4
20260504023102 19 240 6.4 17.7 0.00 0.00 0.00 37 999.8
20260504021558 20 279 3.2 17.7 0.00 0.00 0.00 36 999.8
20260504020056 20 263 11.3 24.1 0.00 0.00 0.00 34 999.9
20260504014605 21 285 9.7 29.0 0.00 0.00 0.00 33 999.8
20260504013100 21 257 12.9 32.2 0.00 0.00 0.00 32 1000.0
20260504011552 22 250 11.3 25.7 0.00 0.00 0.00 31 1000.2
20260504010054 22 285 6.4 19.3 0.00 0.00 0.00 30 1000.6
20260504004552 22 293 11.3 22.5 0.00 0.00 0.00 28 1000.8
20260504003055 22 269 4.8 20.9 0.00 0.00 0.00 28 1001.3
20260504001600 22 267 8.0 24.1 0.00 0.00 0.00 28 1001.6
20260504000040 22 232 8.0 25.7 0.00 0.00 0.00 28 1001.9
20260503234538 22 266 11.3 29.0 0.00 0.00 0.00 27 1002.3
20260503233037 22 272 9.7 25.7 0.00 0.00 0.00 28 1002.8
20260503231534 22 303 12.9 25.7 0.00 0.00 0.00 27 1002.9
20260503230034 23 311 6.4 29.0 0.00 0.00 0.00 27 1003.0
20260503224532 23 292 12.9 29.0 0.00 0.00 0.00 25 1003.2
20260503223030 23 229 16.1 41.8 0.00 0.00 0.00 25 1003.5
20260503221529 23 236 16.1 33.8 0.00 0.00 0.00 26 1003.6
20260503220027 23 313 11.3 35.4 0.00 0.00 0.00 27 1003.8
20260503214524 23 304 11.3 29.0 0.00 0.00 0.00 26 1004.1
20260503213022 23 246 9.7 33.8 0.00 0.00 0.00 29 1004.4
20260503211520 23 286 12.9 38.6 0.00 0.00 0.00 27 1004.9
20260503210017 23 275 9.7 29.0 0.00 0.00 0.00 27 1005.4
20260503204519 23 291 8.0 27.4 0.00 0.00 0.00 28 1005.8
20260503203014 23 271 14.5 33.8 0.00 0.00 0.00 26 1006.2
20260503201507 22 336 12.9 32.2 0.00 0.00 0.00 29 1006.7
20260503200008 22 306 11.3 24.1 0.00 0.00 0.00 27 1007.2
20260503194502 22 276 16.1 30.6 0.00 0.00 0.00 28 1007.3
20260503193117 22 279 8.0 27.4 0.00 0.00 0.00 29 1007.6
20260503191605 22 297 12.9 33.8 0.00 0.00 0.00 29 1008.0
20260503190054 21 327 9.7 29.0 0.00 0.00 0.00 32 1008.4
20260503184551 21 269 8.0 24.1 0.00 0.00 0.00 32 1009.0
20260503183107 21 306 14.5 25.7 0.00 0.00 0.00 31 1009.3
20260503181613 20 259 4.8 17.7 0.00 0.00 0.00 36 1009.9
20260503180043 20 250 17.7 27.4 0.00 0.00 0.00 33 1010.2
20260503174541 19 324 9.7 27.4 0.00 0.00 0.00 35 1010.6
20260503173036 19 265 8.0 25.7 0.00 0.00 0.00 34 1011.0
20260503171533 18 238 6.4 19.3 0.00 0.00 0.00 35 1011.4
20260503110146 3 294 0.0 0.0 0.00 0.00 0.00 69 1014.2
20260503081520 6 332 4.8 8.0 0.00 0.00 0.00 61 1014.0
20260503071512 7 336 6.4 14.5 0.00 0.00 0.00 61 1014.0
20260503060119 10 360 9.7 19.3 0.00 0.00 0.00 54 1013.5
20260503054559 10 343 6.4 16.1 0.00 0.00 0.00 59 1013.4
20260503053050 10 331 6.4 16.1 0.00 0.00 0.00 60 1013.5
20260503051549 11 355 6.4 17.7 0.00 0.00 0.00 60 1013.3
20260503050045 11 341 8.0 16.1 0.00 0.00 0.00 60 1013.1
20260503044544 11 13 6.4 16.1 0.00 0.00 0.00 61 1013.2
20260503043045 12 11 6.4 16.1 0.00 0.00 0.00 59 1012.9
20260503041542 13 347 8.0 19.3 0.00 0.00 0.00 58 1012.7